Weather History for MMAN - October, 2012

Change the Weather History Date:

Monday, October 8, 2012

  Actual Average Record
Temperature  
Mean Temperature 60 °F -  
Max Temperature 66 °F 80 °F 93 °F (1999)
Min Temperature 55 °F 62 °F 44 °F (2000)
Degree Days  
Heating Degree Days 4    
Growing Degree Days 10 (Base 50)    
Moisture  
Dew Point 56 °F    
Average Humidity 85    
Maximum Humidity 100    
Minimum Humidity 68    
Precipitation  
Precipitation 0.00 in - - ()
Sea Level Pressure  
Sea Level Pressure 30.16 in    
Wind  
Wind Speed 6 mph ()    
Max Wind Speed 12 mph    
Max Gust Speed -    
Visibility 4.9 miles    
Events      
Averages and records for this station are not official NWS values.
T = Trace of Precipitation, MM = Missing Value Source: Averaged Metar Reports

Daily Weather History Graph

Daily Weather History Graph

Search for Another Location

Airport or City:

Trip Planner

Search our weather history database for the weather conditions in past years. The results will help you decide how hot, cold, wet, or windy it might be!

Date:

Astronomy

Oct. 08, 2012 Rise Set
Actual Time 7:36 AM CDT 7:19 PM CDT
Civil Twilight 7:13 AM CDT 7:42 PM CDT
Nautical Twilight 6:46 AM CDT 8:09 PM CDT
Astronomical Twilight 6:20 AM CDT 8:36 PM CDT
Moon 12:55 AM CDT (10/8) 2:34 PM CDT (10/8)
Length of Visible Light 12h 29m
Length of Day
11h 42m
Last Quarter, 46% of the Moon is Illuminated
Oct 8
Last Quarter
Oct 15
New
Oct 21
First Quarter
Oct 29
Full
Nov 6
Last Quarter

Hourly Weather History & Observations

Time (CDT) Temp. Dew Point Humidity Pressure Visibility Wind Dir Wind Speed Gust Speed Precip Events Conditions
5:47 AM 55.4 °F 55.4 °F 100% 30.18 in 1.0 mi North 9.2 mph - N/A   Light Drizzle
6:42 AM 55.4 °F 55.4 °F 100% 30.12 in 1.0 mi North 6.9 mph - N/A   Overcast
7:42 AM 57.2 °F 53.6 °F 88% 30.21 in 5.0 mi North 11.5 mph - N/A   Overcast
8:40 AM 55.4 °F 55.4 °F 100% 30.22 in 6.0 mi North 6.9 mph - N/A   Overcast
9:40 AM 57.2 °F 53.6 °F 88% 30.18 in 6.0 mi North 10.4 mph - N/A   Overcast
10:40 AM 59.0 °F 53.6 °F 82% 30.25 in 7.0 mi North 10.4 mph - N/A   Overcast
11:40 AM 60.8 °F 55.4 °F 82% 30.24 in 8.0 mi NNE 8.1 mph - N/A   Overcast
12:41 PM 62.6 °F 53.6 °F 72% 30.16 in 8.0 mi North 5.8 mph - N/A   Overcast
1:40 PM 66.2 °F 55.4 °F 68% 30.20 in 8.0 mi Calm Calm - N/A   Overcast
2:40 PM 64.4 °F 55.4 °F 73% 30.18 in 8.0 mi East 6.9 mph - N/A   Overcast
3:40 PM 64.4 °F 55.4 °F 73% 30.10 in 7.0 mi ESE 4.6 mph - N/A   Overcast
4:40 PM 64.4 °F 55.4 °F 73% 30.14 in 6.0 mi ENE 4.6 mph - N/A   Overcast
5:40 PM 62.6 °F 57.2 °F 82% 30.13 in 3.0 mi Calm Calm - N/A   Overcast
6:40 PM 60.8 °F 57.2 °F 88% 30.08 in 3.0 mi East 4.6 mph - N/A   Overcast
7:42 PM 60.8 °F 57.2 °F 88% 30.13 in 3.0 mi SE 5.8 mph - N/A   Overcast
8:43 PM 60.8 °F 57.2 °F 88% 30.14 in 5.0 mi SE 4.6 mph - N/A   Overcast
9:42 PM 60.8 °F 57.2 °F 88% 30.10 in 3.0 mi ESE 4.6 mph - N/A   Overcast
10:40 PM 60.8 °F 57.2 °F 88% 30.16 in 3.0 mi ESE 3.5 mph - N/A   Overcast
11:43 PM 60.8 °F 59.0 °F 94% 30.16 in 3.0 mi ESE 3.5 mph - N/A   Overcast